Wind from 331 at 1 knots gusting 4

Air temperature 17.2° C
Dewpoint 8.6° C

Last reported at 2014-Apr-16 18:46 UTC.
Time now 2014-Apr-16 19:23 UTC

Location: N 40°58' W 002°11'.
View on Google Maps.

See reports from other nearby stations

Tides Stations Pressure Air Temp Water Temp Dewpoint Dewpoint depression Visibility Wind Speed Wind Dir Waves Ship positions

  
sailing weather and tide predictions

DW4915 Mazarete ES weather

date/time (UTC)wind fromknots sea level pressurealtimeterstation pressurevisibilityair tempwater tempwave heightnotes
2014-Apr-16 18:46 331 1 gusting 4 17.2
2014-Apr-16 18:36 330 2 gusting 3 17.8
2014-Apr-16 18:31 329 2 gusting 3 17.8
2014-Apr-16 18:26 329 2 gusting 3 17.8
2014-Apr-16 18:21 330 0 gusting 3 18.3
2014-Apr-16 18:16 328 0 gusting 4 18.3
2014-Apr-16 18:06 329 4 gusting 8 18.3
2014-Apr-16 18:01 331 3 gusting 6 18.3
2014-Apr-16 17:51 327 3 gusting 6 18.3
2014-Apr-16 17:46 327 2 gusting 6 18.3
2014-Apr-16 17:41 331 3 gusting 6 18.9
2014-Apr-16 17:31 329 6 gusting 12 18.9
2014-Apr-16 17:26 329 7 gusting 12 19.4
2014-Apr-16 17:21 330 9 gusting 12 19.4
2014-Apr-16 17:11 329 9 gusting 12 20.6
2014-Apr-16 17:06 329 6 gusting 11 20.6
2014-Apr-16 17:01 328 6 gusting 13 21.1
2014-Apr-16 16:56 331 8 gusting 13 21.1
2014-Apr-16 16:46 295 3 gusting 8 21.1
2014-Apr-16 16:41 296 4 gusting 8 21.1
2014-Apr-16 16:36 294 5 gusting 8 20.6
2014-Apr-16 16:26 294 4 gusting 10 20.6
2014-Apr-16 16:21 297 5 gusting 12 21.1
2014-Apr-16 16:16 300 4 gusting 11 21.1
2014-Apr-16 16:11 300 6 gusting 9 21.1
2014-Apr-16 16:01 299 5 gusting 10 20.6
2014-Apr-16 15:56 296 6 gusting 10 20.6
2014-Apr-16 15:51 300 6 gusting 12 20.6
2014-Apr-16 15:46 296 7 gusting 12 20.6
2014-Apr-16 15:41 300 6 gusting 12 21.1
2014-Apr-16 15:31 293 9 gusting 11 21.7
2014-Apr-16 15:26 268 6 gusting 8 21.7
2014-Apr-16 15:21 269 2 gusting 5 21.1
2014-Apr-16 15:16 265 2 gusting 5 20.6
2014-Apr-16 15:06 267 2 gusting 5 20.0
2014-Apr-16 15:01 267 3 gusting 5 20.0
2014-Apr-16 14:56 269 2 gusting 5 20.6
2014-Apr-16 14:46 269 1 gusting 7 20.6
2014-Apr-16 14:41 267 5 gusting 7 20.6
2014-Apr-16 14:31 269 3 gusting 6 21.1
2014-Apr-16 14:21 267 5 gusting 9 21.7
2014-Apr-16 14:16 267 3 gusting 11 21.7
2014-Apr-16 14:11 270 8 gusting 12 21.7
2014-Apr-16 14:06 265 4 gusting 12 21.7
2014-Apr-16 14:01 276 3 gusting 9 21.1
2014-Apr-16 13:56 277 6 gusting 9 21.1
2014-Apr-16 13:46 275 6 gusting 11 21.7
2014-Apr-16 13:41 283 6 gusting 12 21.7
2014-Apr-16 13:36 283 7 gusting 12 21.7
2014-Apr-16 13:26 298 6 gusting 13 20.6
2014-Apr-16 13:21 286 5 gusting 13 20.0
2014-Apr-16 13:11 290 3 gusting 8 20.6
2014-Apr-16 13:06 290 4 gusting 7 20.0
2014-Apr-16 13:01 291 3 gusting 10 20.0
2014-Apr-16 12:56 290 5 gusting 10 20.6
2014-Apr-16 12:46 291 2 gusting 9 20.6
2014-Apr-16 12:41 287 6 gusting 9 20.6
2014-Apr-16 12:36 292 5 gusting 8 20.6
2014-Apr-16 12:26 292 0 gusting 4 19.4
2014-Apr-16 12:21 290 19.4
2014-Apr-16 12:16 292 19.4
2014-Apr-16 12:06 291 1 gusting 7 20.6
2014-Apr-16 12:01 290 3 gusting 8 21.1
2014-Apr-16 11:56 286 4 gusting 11 20.6
2014-Apr-16 11:51 269 3 gusting 9 20.6
2014-Apr-16 11:41 269 5 gusting 11 20.0
2014-Apr-16 11:36 269 6 gusting 11 20.0
2014-Apr-16 11:31 299 6 gusting 12 20.0
2014-Apr-16 11:26 302 5 gusting 12 20.0
2014-Apr-16 11:21 305 1 gusting 12 20.0
2014-Apr-16 11:16 307 2 gusting 12 19.4
2014-Apr-16 11:06 304 6 gusting 11 19.4
2014-Apr-16 11:01 304 7 gusting 11 19.4
2014-Apr-16 10:56 303 0 gusting 13 19.4
2014-Apr-16 10:51 303 6 gusting 13 19.4
2014-Apr-16 10:46 049 5 gusting 7 18.9
2014-Apr-16 10:41 048 5 gusting 7 19.4
2014-Apr-16 10:36 047 1 gusting 7 18.9
2014-Apr-16 10:31 050 5 gusting 7 19.4
2014-Apr-16 10:21 048 2 gusting 6 18.9
2014-Apr-16 10:16 049 1 gusting 6 18.9
2014-Apr-16 10:11 050 4 gusting 6 18.3
2014-Apr-16 10:01 049 18.3
2014-Apr-16 09:51 048 2 gusting 6 18.3
2014-Apr-16 09:46 046 18.3
2014-Apr-16 09:41 048 3 gusting 6 18.3
2014-Apr-16 09:36 046 3 gusting 5 18.3
2014-Apr-16 09:31 049 2 gusting 6 17.8
2014-Apr-16 09:21 050 1 gusting 4 17.8
2014-Apr-16 09:16 047 17.2
2014-Apr-16 09:11 050 0 gusting 5 16.7
2014-Apr-16 09:01 048 0 gusting 3 16.7
2014-Apr-16 08:56 051 16.7
2014-Apr-16 08:51 046 3 gusting 6 16.7
2014-Apr-16 08:46 051 16.7
2014-Apr-16 08:41 048 0 gusting 5 16.1
2014-Apr-16 08:36 050 0 gusting 3 16.1
2014-Apr-16 08:26 048 15.6
2014-Apr-16 08:21 052 15.0
2014-Apr-16 08:16 047 14.4
2014-Apr-16 08:11 046 14.4
2014-Apr-16 08:06 050 14.4
2014-Apr-16 07:56 049 14.4
2014-Apr-16 07:51 052 13.3
2014-Apr-16 07:46 049 13.3
2014-Apr-16 07:41 050 12.8
2014-Apr-16 07:36 050 12.2
2014-Apr-16 07:26 047 11.7
2014-Apr-16 07:21 050 10.6
2014-Apr-16 07:16 049 10.6
2014-Apr-16 07:11 048 10.0
2014-Apr-16 07:06 049 10.0
2014-Apr-16 06:56 052 8.3
2014-Apr-16 06:51 047 7.2
2014-Apr-16 06:41 050 6.1
2014-Apr-16 06:36 048 5.6
2014-Apr-16 06:31 050 5.0
2014-Apr-16 06:26 046 4.4
2014-Apr-16 06:16 049 3.3
2014-Apr-16 06:11 048 3.3
2014-Apr-16 06:06 049 2.8
2014-Apr-16 06:01 049 2.8
2014-Apr-16 05:51 048 2.8
2014-Apr-16 05:46 049 2.8
2014-Apr-16 05:41 049 2.8
2014-Apr-16 05:31 049 2.8
2014-Apr-16 05:26 048 2.8
2014-Apr-16 05:21 047 2.8
2014-Apr-16 05:11 047 2.8
2014-Apr-16 05:01 049 2.8
2014-Apr-16 04:56 046 3.3
2014-Apr-16 04:51 049 3.3
2014-Apr-16 04:46 049 3.3
2014-Apr-16 04:41 050 3.3
2014-Apr-16 04:36 048 3.3
2014-Apr-16 04:26 050 3.3
2014-Apr-16 04:16 048 3.3
2014-Apr-16 04:11 047 3.3
2014-Apr-16 04:06 049 3.3
2014-Apr-16 03:56 048 3.3
2014-Apr-16 03:51 046 3.3
2014-Apr-16 03:41 048 3.3
2014-Apr-16 03:36 051 3.3
2014-Apr-16 03:26 048 3.3
2014-Apr-16 03:21 049 3.3
2014-Apr-16 03:16 050 3.3
2014-Apr-16 03:11 046 3.3
2014-Apr-16 03:06 050 3.9
2014-Apr-16 02:56 048 3.9
2014-Apr-16 02:51 047 3.9
2014-Apr-16 02:41 050 3.9
2014-Apr-16 02:36 047 3.9
2014-Apr-16 02:26 048 3.9
2014-Apr-16 02:21 047 3.9
2014-Apr-16 02:16 050 4.4
2014-Apr-16 02:11 048 4.4
2014-Apr-16 02:01 047 4.4
2014-Apr-16 01:56 046 4.4
2014-Apr-16 01:51 047 4.4
2014-Apr-16 01:41 048 4.4
2014-Apr-16 01:36 046 4.4
2014-Apr-16 01:31 049 4.4
2014-Apr-16 01:26 048 4.4
2014-Apr-16 01:21 048 4.4
2014-Apr-16 01:16 048 4.4
2014-Apr-16 01:06 050 5.0
2014-Apr-16 01:01 047 5.0
2014-Apr-16 00:56 048 5.0
2014-Apr-16 00:51 049 5.0
2014-Apr-16 00:46 049 5.0
2014-Apr-16 00:36 050 5.0
2014-Apr-16 00:31 049 1 gusting 3 5.0
2014-Apr-16 00:26 049 5.0
2014-Apr-16 00:21 048 5.6
2014-Apr-16 00:11 049 5.0
2014-Apr-16 00:06 048 5.6
2014-Apr-16 00:01 048 5.6
2014-Apr-15 23:56 049 5.6
2014-Apr-15 23:51 048 5.6
2014-Apr-15 23:46 047 5.6
2014-Apr-15 23:36 049 6.1
2014-Apr-15 23:31 048 6.1
2014-Apr-15 23:26 049 6.1
2014-Apr-15 23:21 048 0 gusting 3 6.1
2014-Apr-15 23:16 048 0 gusting 2 6.7
2014-Apr-15 23:06 049 2 gusting 3 6.7
2014-Apr-15 23:01 047 6.7
2014-Apr-15 22:56 048 6.7
2014-Apr-15 22:51 050 7.2
2014-Apr-15 22:46 048 0 gusting 2 7.2
2014-Apr-15 22:41 050 7.2
2014-Apr-15 22:36 048 7.2
2014-Apr-15 22:26 049 7.2
2014-Apr-15 22:21 048 7.8
2014-Apr-15 22:11 047 7.8
2014-Apr-15 22:06 049 7.8
2014-Apr-15 22:01 048 7.8
2014-Apr-15 21:56 046 8.3
2014-Apr-15 21:46 049 8.3
2014-Apr-15 21:41 048 8.3
2014-Apr-15 21:36 050 8.3
2014-Apr-15 21:26 046 8.9
2014-Apr-15 21:21 049 8.3
2014-Apr-15 21:16 048 8.3
2014-Apr-15 21:06 048 8.9
2014-Apr-15 21:01 050 8.9
2014-Apr-15 20:56 048 8.9
2014-Apr-15 20:51 048 8.9
2014-Apr-15 20:46 048 8.9
2014-Apr-15 20:41 048 9.4
2014-Apr-15 20:36 048 9.4
2014-Apr-15 20:31 048 9.4
2014-Apr-15 20:21 049 9.4
2014-Apr-15 20:16 048 9.4
2014-Apr-15 20:11 049 0 gusting 2 9.4
2014-Apr-15 20:06 048 10.0
2014-Apr-15 20:01 049 10.0
2014-Apr-15 19:56 049 10.0
2014-Apr-15 19:51 047 10.0
2014-Apr-15 19:46 048 10.0
2014-Apr-15 19:36 049 10.6
2014-Apr-15 19:31 049 11.1
2014-Apr-15 19:26 048 11.1
2014-Apr-15 19:16 047 11.1
2014-Apr-15 19:11 046 11.7
2014-Apr-15 19:06 048 11.7
2014-Apr-15 19:01 048 11.7
2014-Apr-15 18:51 050 2 gusting 3 12.2
2014-Apr-15 18:46 049 1 gusting 3 12.2
2014-Apr-15 18:41 050 12.8
2014-Apr-15 18:36 049 12.8
2014-Apr-15 18:31 051 12.8
2014-Apr-15 18:26 050 12.8
2014-Apr-15 18:21 046 12.8
2014-Apr-15 18:16 050 12.8
2014-Apr-15 18:11 045 12.8
2014-Apr-15 18:06 052 13.3
2014-Apr-15 17:56 047 1 gusting 5 13.3
2014-Apr-15 17:51 049 13.3
2014-Apr-15 17:46 048 13.3
2014-Apr-15 17:41 048 13.3
2014-Apr-15 17:31 050 13.3
2014-Apr-15 17:26 050 2 gusting 4 13.3
2014-Apr-15 17:21 049 12.8
2014-Apr-15 17:11 050 3 gusting 6 12.8
2014-Apr-15 17:06 046 1 gusting 6 12.8
2014-Apr-15 16:56 049 3 gusting 11 12.2
2014-Apr-15 16:51 070 1 gusting 11 12.2
2014-Apr-15 16:46 069 5 gusting 13 11.7
2014-Apr-15 16:41 067 4 gusting 11 11.7
2014-Apr-15 16:36 069 2 gusting 12 11.7
2014-Apr-15 16:26 067 8 gusting 12 11.7
2014-Apr-15 16:21 086 6 gusting 11 12.2
2014-Apr-15 16:16 088 7 gusting 13 11.7
2014-Apr-15 16:11 085 9 gusting 13 11.7
2014-Apr-15 16:06 090 8 gusting 10 12.2
2014-Apr-15 16:01 089 8 gusting 17 12.2
2014-Apr-15 15:51 057 9 gusting 12 12.2
2014-Apr-15 15:46 047 7 gusting 13 12.2
2014-Apr-15 15:36 025 5 gusting 11 12.8
2014-Apr-15 15:31 016 5 gusting 18 13.3
2014-Apr-15 15:26 355 7 gusting 19 13.9
2014-Apr-15 15:16 211 4 gusting 12 16.1
2014-Apr-15 15:11 221 6 gusting 14 16.1
2014-Apr-15 15:06 238 10 gusting 14 17.2
2014-Apr-15 14:56 248 1 gusting 6 18.9
2014-Apr-15 14:51 248 2 gusting 6 19.4
2014-Apr-15 14:46 246 2 gusting 6 19.4
2014-Apr-15 14:36 249 6 gusting 8 20.0
2014-Apr-15 14:26 247 1 gusting 7 19.4
2014-Apr-15 14:21 248 5 gusting 7 20.0
2014-Apr-15 14:16 248 0 gusting 6 20.0
2014-Apr-15 14:11 247 4 gusting 6 20.0
2014-Apr-15 14:06 248 4 gusting 6 19.4
2014-Apr-15 14:01 248 3 gusting 6 19.4
2014-Apr-15 13:56 246 1 gusting 8 19.4
2014-Apr-15 13:51 247 4 gusting 8 19.4
2014-Apr-15 13:46 248 5 gusting 7 19.4
2014-Apr-15 13:41 249 19.4
2014-Apr-15 13:31 248 1 gusting 7 19.4
2014-Apr-15 13:26 248 3 gusting 7 19.4
2014-Apr-15 13:21 248 1 gusting 6 20.0
2014-Apr-15 13:11 250 5 gusting 10 20.0
2014-Apr-15 13:06 246 6 gusting 10 20.0
2014-Apr-15 13:01 249 2 gusting 6 20.6
2014-Apr-15 12:51 248 1 gusting 9 20.0
2014-Apr-15 12:46 248 2 gusting 9 20.6
2014-Apr-15 12:41 250 3 gusting 6 20.0
2014-Apr-15 12:36 247 2 gusting 6 19.4
2014-Apr-15 12:31 248 1 gusting 9 19.4
2014-Apr-15 12:26 248 0 gusting 10 18.9
2014-Apr-15 12:16 248 18.9
2014-Apr-15 12:11 250 2 gusting 8 18.9
2014-Apr-15 12:06 247 5 gusting 8 18.9
2014-Apr-15 12:01 248 3 gusting 7 18.9
2014-Apr-15 11:56 249 1 gusting 5 18.9
2014-Apr-15 11:46 248 18.9
2014-Apr-15 11:41 250 5 gusting 8 18.9
2014-Apr-15 11:31 248 5 gusting 8 19.4
2014-Apr-15 11:26 248 18.9
2014-Apr-15 11:21 248 0 gusting 5 18.9
2014-Apr-15 11:16 246 2 gusting 6 18.3
2014-Apr-15 11:06 248 2 gusting 6 18.3
2014-Apr-15 11:01 248 17.8
2014-Apr-15 10:56 248 17.8
2014-Apr-15 10:51 247 17.8
2014-Apr-15 10:41 249 0 gusting 5 17.2
2014-Apr-15 10:36 248 0 gusting 6 17.2
2014-Apr-15 10:31 247 2 gusting 6 17.2
2014-Apr-15 10:21 248 17.2
2014-Apr-15 10:16 248 0 gusting 1 17.2
2014-Apr-15 10:11 248 16.7
2014-Apr-15 10:01 247 16.7
2014-Apr-15 09:56 248 16.1
2014-Apr-15 09:51 250 16.1
2014-Apr-15 09:41 248 16.1
2014-Apr-15 09:36 246 0 gusting 5 16.1
2014-Apr-15 09:26 249 15.6
2014-Apr-15 09:21 250 15.6
2014-Apr-15 09:16 248 15.6
2014-Apr-15 09:06 249 1 gusting 3 15.6
2014-Apr-15 09:01 247 15.6
2014-Apr-15 08:56 252 15.6
2014-Apr-15 08:46 248 15.0
2014-Apr-15 08:41 250 1 gusting 4 15.0
2014-Apr-15 08:36 248 14.4
2014-Apr-15 08:31 249 14.4
2014-Apr-15 08:26 249 14.4
2014-Apr-15 08:21 245 0 gusting 3 13.9
2014-Apr-15 08:16 248 0 gusting 3 13.9
2014-Apr-15 08:11 248 0 gusting 3 13.9
2014-Apr-15 08:01 250 0 gusting 2 13.9
2014-Apr-15 07:56 249 13.3
2014-Apr-15 07:51 249 0 gusting 2 13.3
2014-Apr-15 07:46 247 13.3
2014-Apr-15 07:36 248 12.8
2014-Apr-15 07:31 249 12.2
2014-Apr-15 07:26 247 11.7
2014-Apr-15 07:16 248 10.6
2014-Apr-15 07:06 247 9.4
2014-Apr-15 07:01 248 8.9
2014-Apr-15 06:56 250 8.9
2014-Apr-15 06:51 249 8.3
2014-Apr-15 06:46 248 7.8
2014-Apr-15 06:41 248 7.2
2014-Apr-15 06:31 246 6.7
2014-Apr-15 06:26 248 6.7
2014-Apr-15 06:21 248 6.1
2014-Apr-15 06:16 248 6.1
2014-Apr-15 06:06 249 6.1
2014-Apr-15 06:01 249 6.1
2014-Apr-15 05:51 250 6.1
2014-Apr-15 05:46 248 6.1
2014-Apr-15 05:41 250 6.1
2014-Apr-15 05:36 248 6.1
2014-Apr-15 05:31 250 6.1
2014-Apr-15 05:26 248 6.1
2014-Apr-15 05:21 248 6.1
2014-Apr-15 05:11 249 6.1
2014-Apr-15 05:01 248 6.1
2014-Apr-15 04:56 248 6.1
2014-Apr-15 04:51 247 6.1
2014-Apr-15 04:46 247 6.1
2014-Apr-15 04:41 249 6.1
2014-Apr-15 04:36 248 6.7
2014-Apr-15 04:31 248 6.7
2014-Apr-15 04:26 249 6.7
2014-Apr-15 04:21 247 6.7
2014-Apr-15 04:16 248 6.7
2014-Apr-15 04:11 247 6.7
2014-Apr-15 04:06 248 6.7
2014-Apr-15 03:56 248 7.2
2014-Apr-15 03:46 248 7.2
2014-Apr-15 03:41 249 7.2
2014-Apr-15 03:36 247 7.2
2014-Apr-15 03:26 248 7.8
2014-Apr-15 03:21 248 7.8
2014-Apr-15 03:11 248 7.8
2014-Apr-15 03:01 248 7.8
2014-Apr-15 02:56 247 7.8
2014-Apr-15 02:51 249 7.8
2014-Apr-15 02:46 248 8.3
2014-Apr-15 02:36 249 8.3
2014-Apr-15 02:31 248 8.3
2014-Apr-15 02:21 249 8.9
2014-Apr-15 02:16 249 8.9
2014-Apr-15 02:11 248 8.9
2014-Apr-15 02:01 249 9.4
2014-Apr-15 01:56 248 9.4
2014-Apr-15 01:51 248 9.4
2014-Apr-15 01:46 248 8.9
2014-Apr-15 01:41 248 8.9
2014-Apr-15 01:31 250 8.9
2014-Apr-15 01:26 248 8.3
2014-Apr-15 01:16 248 8.3
2014-Apr-15 01:11 247 8.3
2014-Apr-15 01:01 248 7.8
2014-Apr-15 00:56 247 7.8
2014-Apr-15 00:51 250 7.8
2014-Apr-15 00:46 248 7.2
2014-Apr-15 00:36 248 7.2
2014-Apr-15 00:31 249 7.2
2014-Apr-15 00:26 248 7.2
2014-Apr-15 00:21 248 7.2
2014-Apr-15 00:11 248 7.2
2014-Apr-15 00:06 248 7.8
2014-Apr-14 23:56 249 7.8
2014-Apr-14 23:51 248 8.3
2014-Apr-14 23:46 249 8.3
2014-Apr-14 23:36 250 8.9
2014-Apr-14 23:31 248 8.9
2014-Apr-14 23:21 249 9.4
2014-Apr-14 23:16 248 10.0
2014-Apr-14 23:11 248 10.0
2014-Apr-14 23:06 248 10.6
2014-Apr-14 23:01 248 10.6
2014-Apr-14 22:56 248 10.6
2014-Apr-14 22:51 248 10.6
2014-Apr-14 22:41 248 11.1
2014-Apr-14 22:36 247 11.1
2014-Apr-14 22:31 249 11.7
2014-Apr-14 22:26 248 11.7
2014-Apr-14 22:21 250 11.7
2014-Apr-14 22:11 247 11.7
2014-Apr-14 22:06 248 11.7
2014-Apr-14 22:01 249 11.7
2014-Apr-14 21:56 249 11.7
2014-Apr-14 21:46 248 12.2
2014-Apr-14 21:41 248 12.2
2014-Apr-14 21:36 247 12.2
2014-Apr-14 21:31 248 12.2
2014-Apr-14 21:26 248 12.2
2014-Apr-14 21:21 248 12.2
2014-Apr-14 21:16 249 12.8
2014-Apr-14 21:06 249 12.8
2014-Apr-14 21:01 249 12.8
2014-Apr-14 20:56 247 13.3
2014-Apr-14 20:51 250 13.3
2014-Apr-14 20:41 249 13.3
2014-Apr-14 20:36 248 13.3
2014-Apr-14 20:31 248 1 gusting 3 13.3
2014-Apr-14 20:21 248 13.3
2014-Apr-14 20:16 248 13.9
2014-Apr-14 20:11 248 13.9
2014-Apr-14 20:01 248 1 gusting 3 13.9
2014-Apr-14 19:56 250 0 gusting 2 13.9
2014-Apr-14 19:46 249 1 gusting 6 14.4
2014-Apr-14 19:41 249 5 gusting 6 14.4
2014-Apr-14 19:36 248 1 gusting 5 14.4
2014-Apr-14 19:31 248 2 gusting 6 15.0
2014-Apr-14 19:21 248 4 gusting 7 15.0
2014-Apr-14 19:16 248 5 gusting 7 15.0
2014-Apr-14 19:11 249 1 gusting 4 15.0
2014-Apr-14 19:06 249 0 gusting 5 15.0
2014-Apr-14 19:01 248 1 gusting 5 15.0